Location: Étang Rond
(42.7927°N, 1.0661°E)
Time: 01:27:23
(UTC+00:00)

Cosmos 2346 Rocket - Pass Details

Date: 08 November 2025
Orbit: 935 x 979 km, 82.9° (Epoch: 07 December)

Event Time Altitude Azimuth Distance (km) Brightness Sun altitude
Rises 05:51:38 0° 194° (SSW) 3,641 7.5 -9.1°
Reaches altitude 10° 05:54:10 10° 197° (SSW) 2,692 6.8 -8.6°
Maximum altitude 06:00:17 67° 280° (W) 1,034 4.5 -7.5°
Drops below altitude 10° 06:06:23 10° 3° (N) 2,679 6.7 -6.5°
Sets 06:08:54 0° 6° (N) 3,622 7.4 -6.0°
